This is the latest recevied weather packets stored in our database for station/object KC3ROS. If no packets are shown the sender has not sent any weather packets the latest 10 day(s).
| Time | Temp. | Humidity | Pressure | Rain* | Wind** | Luminosity | Snow |
|---|---|---|---|---|---|---|---|
| 1777585612 | 7.78° C | 83% | 1012.5 hPa | 0.51 mm | - | 31 W/m² | - |
| 1777585308 | 7.78° C | 80% | 1012.5 hPa | 0.51 mm | - | 27 W/m² | - |
| 1777585002 | 8.33° C | 76% | 1012.4 hPa | 0 mm | - | 22 W/m² | - |
| 1777584699 | 8.89° C | 72% | 1012.3 hPa | 0 mm | - | 21 W/m² | - |
| 1777584397 | 8.89° C | 72% | 1012.3 hPa | 0 mm | - | 24 W/m² | - |
| 1777584093 | 8.89° C | 71% | 1012.3 hPa | 0 mm | - | 35 W/m² | - |
| 1777583792 | 9.44° C | 72% | 1012.3 hPa | 0 mm | - | 57 W/m² | - |
| 1777583487 | 9.44° C | 71% | 1012.1 hPa | 0 mm | - | 106 W/m² | - |
| 1777583181 | 8.89° C | 73% | 1012.3 hPa | 0 mm | - | 125 W/m² | - |
| 1777582877 | 8.89° C | 72% | 1012.2 hPa | 0 mm | - | 105 W/m² | - |
| 1777582575 | 8.89° C | 72% | 1012.3 hPa | 0 mm | - | 91 W/m² | - |
| 1777582270 | 9.44° C | 71% | 1012.1 hPa | 0 mm | - | 125 W/m² | - |
| 1777581967 | 9.44° C | 69% | 1012.3 hPa | 0 mm | - | 167 W/m² | - |
| 1777581662 | 8.89° C | 71% | 1012.2 hPa | 0 mm | - | 341 W/m² | - |
| 1777581350 | 8.89° C | 72% | 1012.5 hPa | 0 mm | - | 95 W/m² | - |
| 1777581046 | 8.89° C | 72% | 1012.4 hPa | 0 mm | - | 142 W/m² | - |
| 1777580744 | 9.44° C | 73% | 1012.2 hPa | 0 mm | - | 152 W/m² | - |
| 1777580442 | 9.44° C | 74% | 1012.2 hPa | 0 mm | - | 182 W/m² | - |
| 1777580131 | 8.89° C | 74% | 1012.4 hPa | 0 mm | - | 302 W/m² | - |
| 1777579828 | 8.89° C | 75% | 1012.3 hPa | 0 mm | - | 201 W/m² | - |
| 1777579526 | 8.33° C | 75% | 1012.2 hPa | 0 mm | - | 165 W/m² | - |
| 1777579221 | 8.33° C | 75% | 1012.3 hPa | 0 mm | - | 106 W/m² | - |
| 1777578917 | 8.33° C | 76% | 1012.3 hPa | 0 mm | - | 84 W/m² | - |
| 1777578612 | 8.33° C | 76% | 1012.5 hPa | 0 mm | - | 60 W/m² | - |
| 1777578312 | 8.33° C | 73% | 1012.5 hPa | 0 mm | - | 46 W/m² | - |
* Rain latest hour (hover to see other rain measurements)
** Current wind speed in m/s (hover to see current wind gust speed)